Tracking 27401 objects as of 4-Jun-2023
HD Live streaming from Space Station
objects crossing your sky now

STARLINK-4670

Track STARLINK-4670 now!
10-day predictions
STARLINK-4670 is classified as:


NORAD ID: 53744
Int'l Code: 2022-107AW
Perigee: 546.1 km
Apogee: 547.8 km
Inclination: 53.2 °
Period: 95.4 minutes
Semi major axis: 6917 km
RCS: Unknown
Launch date: September 5, 2022
Source: United States (US)
Launch site: AIR FORCE EASTERN TEST RANGE (AFETR)
Your satellite tracking list
Your tracking list is empty




NASA's NSSDC Master Catalog

Two Line Element Set (TLE):
1 53744U 22107AW  23154.92578764  .00000404  00000-0  43514-4 0  9997
2 53744  53.2154 117.1026 0001202  93.8496 266.2634 15.08817737 42155
Source of the keplerian elements: AFSPC